This is the latest recevied weather packets stored in our database for station/object WP3OF-2. If no packets are shown the sender has not sent any weather packets the latest 10 day(s).
| Time | Temp. | Humidity | Pressure | Rain* | Wind** | Luminosity | Snow |
|---|---|---|---|---|---|---|---|
| 1777412528 | 20° C | 99% | 1025.2 hPa | 1.78 mm | - | 71 W/m² | - |
| 1777412225 | 19.44° C | 99% | 1025.2 hPa | 1.78 mm | - | 74 W/m² | - |
| 1777411921 | 19.44° C | 99% | 1025.2 hPa | 1.27 mm | - | 67 W/m² | - |
| 1777411620 | 19.44° C | 99% | 1025.2 hPa | 0 mm | - | 55 W/m² | - |
| 1777411316 | 20° C | 99% | 1024.9 hPa | 0 mm | - | 57 W/m² | - |
| 1777411015 | 20° C | 99% | 1024.9 hPa | 0 mm | - | 48 W/m² | - |
| 1777410709 | 20° C | 99% | 1025.2 hPa | 1.78 mm | - | 51 W/m² | - |
| 1777410404 | 20° C | 99% | 1025.2 hPa | 1.78 mm | - | 60 W/m² | - |
| 1777410103 | 19.44° C | 99% | 1024.9 hPa | 0 mm | - | 79 W/m² | - |
| 1777409798 | 20° C | 99% | 1024.9 hPa | 0 mm | - | 77 W/m² | - |
| 1777406502 | 20° C | 99% | 1025.2 hPa | 0 mm | - | 95 W/m² | - |
| 1777406198 | 20° C | 99% | 1025.2 hPa | 0 mm | - | 95 W/m² | - |
| 1777405892 | 20° C | 99% | 1025.6 hPa | 0 mm | - | 104 W/m² | - |
| 1777405589 | 20° C | 99% | 1025.2 hPa | 0 mm | - | 90 W/m² | - |
| 1777405286 | 20° C | 99% | 1025.2 hPa | 0 mm | - | 105 W/m² | - |
| 1777404986 | 20° C | 99% | 1025.2 hPa | 0 mm | - | 103 W/m² | - |
| 1777404680 | 20° C | 99% | 1025.2 hPa | 0 mm | - | 119 W/m² | - |
| 1777404377 | 20° C | 99% | 1025.2 hPa | 0 mm | - | 111 W/m² | - |
| 1777404074 | 20.56° C | 99% | 1024.9 hPa | 0 mm | - | 100 W/m² | - |
| 1777403769 | 20° C | 98% | 1025.2 hPa | 1.27 mm | - | 100 W/m² | - |
| 1777403468 | 20° C | 99% | 1024.9 hPa | 1.78 mm | - | 72 W/m² | - |
| 1777403162 | 19.44° C | 98% | 1025.2 hPa | 4.83 mm | - | 65 W/m² | - |
| 1777402858 | 19.44° C | 98% | 1025.2 hPa | 11.94 mm | - | 58 W/m² | - |
| 1777402555 | 18.89° C | 97% | 1025.2 hPa | 21.08 mm | - | 48 W/m² | - |
| 1777402252 | 18.89° C | 98% | 1025.6 hPa | 36.58 mm | - | 45 W/m² | - |
* Rain latest hour (hover to see other rain measurements)
** Current wind speed in m/s (hover to see current wind gust speed)